Regional Weather Roundup
Issued by NWS

Home | Current Version | Previous Version | Graphics & Text | Print | Product List | Glossary On
Versions: 1 2 3 4 5 6 7 8 9 10 11 12 13 14 15 16 17 18 19 20 21 22 23 24 25 26 27
000
ASUS45 KBOU 310007
RWRCO

WEATHER ROUNDUP FOR COLORADO
NATIONAL WEATHER SERVICE DENVER/BOULDER CO
600 PM MDT SAT JUL 30 2016

NOTE: "FAIR" INDICATES FEW OR NO CLOUDS BELOW 12000 FEET WITH NO
SIGNIFICANT WEATHER AND/OR OBSTRUCTIONS TO VISIBILITY.

COZ001>005-013-030-031-310100-
...NORTHWEST COLORADO...

CITY           SKY/WX    TMP DP  RH WIND       PRES   REMARKS
CRAIG          FAIR      94  27   9 NW7       30.03F
HAYDEN         FAIR      84  34  16 NE7       30.07F
MEEKER         FAIR      89  38  16 VRB6      30.06S
MOUNT WERNER   NOT AVBL
STEAMBOAT SPGS FAIR      82  36  19 NW6       30.10F
WALDEN         PTSUNNY   66  45  45 NE13      30.25F
$$

COZ006>008-011-310100-
...WEST CENTRAL VALLEYS...

CITY           SKY/WX    TMP DP  RH WIND       PRES   REMARKS
GRAND JUNCTION FAIR      94  33  11 N8        29.93F
MONTROSE       FAIR      88  39  17 S9        30.05F
EAGLE          SUNNY     88  36  15 S13G24    30.08F
RIFLE          FAIR      94  34  12 VRB7      29.97F
DELTA          NOT AVBL
NUCLA          NOT AVBL
$$

COZ017>023-064>068-310100-
...SOUTHWEST COLORADO...

CITY           SKY/WX    TMP DP  RH WIND       PRES   REMARKS
DURANGO        FAIR      78  42  27 N13       30.12S
CORTEZ         FAIR      94  38  14 NW13      30.02S
PAGOSA SPRINGS FAIR      79  33  19 E7        30.23F
TELLURIDE      CLOUDY    61  46  58 N5        30.43R
WOLF CREEK PAS FAIR      54  36  50 CALM      30.62R
$$

COZ009-010-012-014-032>034-037-058>063-310100-
...CENTRAL COLORADO...

CITY           SKY/WX    TMP DP  RH WIND       PRES   REMARKS
ASPEN          FAIR      83  33  16 NW7       30.18F
BUENA VISTA    FAIR      75  37  24 SE23G35   30.21F
COPPER MTN     PTSUNNY   68  21  17 N8        30.57F
BERTHOUD PASS  PTSUNNY   54  37  54 NW15G28   30.63R
COTTONWOOD PAS FAIR      77  23  13 NE3       30.37F
GUNNISON       FAIR      81  34  18 W10G16    30.23F
KREMMLING      FAIR      82  19   9 NW6       30.16S
LEADVILLE      FAIR      73  25  16 W13G18    30.36S
MONARCH PASS   PTSUNNY   61  32  33 N9        30.69S
SALIDA         PTSUNNY   73  40  29 S3        30.28F
SUNLIGHT       FAIR      72  39  30 MISG      30.49S
WILKERSON PASS CLOUDY    61  30  31 S7        30.54S
$$

COZ069>075-310100-
...SAN LUIS VALLEY/SANGRE DE CRISTO MOUNTAINS...

CITY           SKY/WX    TMP DP  RH WIND       PRES   REMARKS
ALAMOSA        FAIR      72  44  36 SW14      30.23S
LA VETA PASS   TSTM      50  45  81 S3        30.52R
SAGUACHE       PTSUNNY   79  37  22 N16G26    30.26R
$$

COZ035-036-038>040-310100-
...NORTHERN COLORADO FRONT RANGE...

CITY           SKY/WX    TMP DP  RH WIND       PRES   REMARKS
DENVER INTL AP FAIR      89  45  21 NE14      29.99R
DMNS CITY PARK   N/A     90  43  19 NE13G18   29.98S
AURORA         PTSUNNY   90  42  18 NE9       30.02R
FRONT RANGE AP PTSUNNY   91  41  17 N14       30.01S
ERIE MUNI ARPT FAIR      88  44  21 NE8       29.98R
BOULDER MUN AP FAIR      86  52  30 NE7       29.99R
CENTENNIAL     FAIR      89  32  13 NE9G17    30.03R
BROOMFIELD     PTSUNNY   90  46  22 NE8       30.02R
LONGMONT       NOT AVBL
$$

COZ041-046-047-076>085-087-088-310100-
...PIKES PEAK/PALMER DIVIDE AND SOUTHERN FOOTHILLS...

CITY           SKY/WX    TMP DP  RH WIND       PRES   REMARKS
COLO. SPRINGS  PTSUNNY   77  49  37 S10       30.11S
A. F. ACADEMY  FAIR      79  45  30 SE8       30.11R
SCHRIEVER AFB  NOT AVBL
ELLICOTT       NOT AVBL
FALCON         NOT AVBL
FORT CARSON    NOT AVBL
LIMON          FAIR      88  51  28 S13       30.00S
MONUMENT HILL  FAIR      82  41  23 S16       30.16S
TRINIDAD       NOT AVBL
$$

COZ042>045-048>051-090-091-310100-
...NORTHEAST COLORADO...

CITY           SKY/WX    TMP DP  RH WIND       PRES   REMARKS
GREELEY ARPT   FAIR      84  61  45 SE8       29.95F
AKRON          FAIR      84  60  44 SE16      29.97S
BURLINGTON     FAIR      89  56  32 SE14      29.93F
WRAY           NOT AVBL
STERLING       NOT AVBL
HOLYOKE        NOT AVBL
FORT MORGAN    NOT AVBL
$$

COZ086-089-092>099-310100-
...SOUTHEAST COLORADO...

CITY           SKY/WX    TMP DP  RH WIND       PRES   REMARKS
PUEBLO         FAIR      84  46  26 S9G20     29.99F
LA JUNTA       FAIR      91  43  18 N21G32    29.91R
LAMAR          FAIR      96  60  30 MISG      29.82F
SPRINGFIELD      N/A     88  55  32 S26G35    29.91F
$$




USA.gov is the U.S. government's official web portal to all federal, state and local government web resources and services.